Weather in Slough

United Kingdom     51°30′34″N   0°35′43″E
temp.,
°C
wind,
m/s
gust,
m/s
humid.,
%
clouds,
%
prec.,
mm/h
press.,
hPa
HPBL,
m
14 may, fri
fri1401:00+7nne249824 0.1 1008106
04:00+8nne389685 0.0 1008337
07:00+8nne399291 0.0 1009587
10:00+9n3786100 0.0 1010608
13:00+10n3582100 0.1 1010363
16:00+13n116487 0.0 1009826
19:00+12e227279 0.1 1008592
22:00+9sse239090 0.1 100781
15 may, sat
sat1501:00+9sw2492100 0.4 1006152
04:00+7s2494100 0.0 1003138
07:00+8ssw2595100 0.4 1002339
10:00+8ssw2695100 1.9 1001536
13:00+10sse2389100 2.1 1000471
16:00+13w357448 1.1 9991171
19:00+12wsw3686100 3.5 999337
22:00+9sw3794100 2.9 1000235
16 may, sun
sun1601:00+8sw3798100 4.1 999270
04:00+7ssw3998100 0.1 999343
07:00+8sse2698100 1.9 998320
10:00+10ssw3893100 1.6 997675
13:00+10ssw4995100 4.3 996744
16:00+12sw5992100 2.2 994761
19:00+12wnw4788100 5.0 995538
22:00+9w3795100 0.3 997165
17 may, mon
mon1701:00+9wsw3896100 0.3 999261
04:00+8w4996100 0.6 1000342
07:00+8wsw3693100 0.7 1002250
10:00+12w347899 0.2 1003739
13:00+13wnw467960 1.8 1004723
16:00+12w6983100 1.6 1006984
19:00+12w598219 2.8 1007895
22:00+8w512895 0.1 1010496
18 may, tue
tue1801:00+7wsw4129159 0.1 1011468
04:00+6wsw4129285 0.0 1012463
07:00+8wsw512875 0.0 1013617
10:00+12wsw6106650 0.0 10141341
13:00+11sw7982100 0.8 10131089
16:00+10sw6129469 1.8 1011918
19:00+11w5108848 3.2 10121043
22:00+8sw310976 0.7 1012337